This is the latest recevied weather packets stored in our database for station/object N2UGS-WX. If no packets are shown the sender has not sent any weather packets the latest 10 day(s).
| Time | Temp. | Humidity | Pressure | Rain* | Wind** | Luminosity | Snow |
|---|---|---|---|---|---|---|---|
| 1778301003 | 5° C | 73% | 1010.5 hPa | 0 mm | - | - | - |
| 1778300102 | 5° C | 74% | 1010.5 hPa | 0 mm | - | - | - |
| 1778299202 | 4.44° C | 74% | 1010.8 hPa | 0 mm | - | - | - |
| 1778298902 | 4.44° C | 74% | 1010.8 hPa | 0 mm | - | - | - |
| 1778298002 | 4.44° C | 72% | 1010.8 hPa | 0 mm | - | - | - |
| 1778297102 | 5° C | 71% | 1010.8 hPa | 0 mm | - | - | - |
| 1778296502 | 5° C | 70% | 1011.2 hPa | 0 mm | - | - | - |
| 1778295603 | 5° C | 67% | 1011.2 hPa | 0 mm | - | - | - |
| 1778295002 | 5° C | 67% | 1011.2 hPa | 0 mm | - | - | - |
| 1778294042 | 5.56° C | 66% | 1011.2 hPa | 0 mm | - | - | - |
| 1778293141 | 6.11° C | 65% | 1011.2 hPa | 0 mm | - | - | - |
| 1778292242 | 6.67° C | 60% | 1011.2 hPa | 0 mm | - | - | - |
| 1778291641 | 6.67° C | 58% | 1010.8 hPa | 0 mm | - | - | - |
| 1778290741 | 7.22° C | 53% | 1010.8 hPa | 0 mm | - | - | - |
| 1778289842 | 7.78° C | 50% | 1010.8 hPa | 0 mm | - | - | - |
| 1778288942 | 8.33° C | 47% | 1010.8 hPa | 0 mm | - | - | - |
| 1778288042 | 9.44° C | 40% | 1010.5 hPa | 0 mm | - | - | - |
| 1778287142 | 10.56° C | 36% | 1010.8 hPa | 0 mm | - | - | - |
| 1778286542 | 10.56° C | 35% | 1010.8 hPa | 0 mm | - | - | - |
| 1778285702 | 11.11° C | 33% | 1010.5 hPa | 0 mm | - | - | - |
| 1778285042 | 11.67° C | 32% | 1010.5 hPa | 0 mm | - | - | - |
| 1778284143 | 12.22° C | 33% | 1010.5 hPa | 0 mm | - | - | - |
| 1778283302 | 12.22° C | 30% | 1010.2 hPa | 0 mm | - | - | - |
| 1778282342 | 13.33° C | 31% | 1010.2 hPa | 0 mm | - | - | - |
| 1778281442 | 13.33° C | 30% | 1010.2 hPa | 0 mm | - | - | - |
* Rain latest hour (hover to see other rain measurements)
** Current wind speed in m/s (hover to see current wind gust speed)